Location: G�tzens
(47.2333°N, 11.3167°E)
Time: 14:50:17
(UTC+00:00)

Daily predictions for brighter satellites

Satellite Brightness Start Highest point End
(mag) Time Altitude Azimuth Time Altitude Azimuth Time Altitude Azimuth
Cosmos 1745 Rocket 4.1 19:41:08 10° S 19:47:11 61° E 19:53:21 10° NNE
Landsat 7 4.4 19:43:59 10° SE 19:48:29 45° ENE 19:53:02 10° N
Resurs 1-3 4.3 19:46:18 10° S 19:50:36 55° W 19:54:55 10° NNW
Cosmos 1125 Rocket 4.0 19:45:45 10° NNW 19:50:56 64° WSW 19:56:08 10° S
Meteor 1-21 Rocket 4.4 19:50:22 10° S 19:56:15 73° E 20:02:10 10° NNE
USA 267 4.2 19:50:21 10° E 19:56:32 46° NNE 20:02:43 10° NW
SPOT 1/Viking Rocket 4.0 19:51:59 10° SE 19:56:53 47° ENE 20:01:49 10° N
Alouette 2 Rocket 4.1 19:57:22 10° N 20:01:02 45° ENE 20:05:48 10° SSE
Cosmos 2322 Rocket 2.6 19:56:11 10° SW 20:01:46 71° WNW 20:07:24 10° NNE
SL-08 ROCKET BODY 4.4 19:56:43 10° S 20:02:39 78° E 20:08:43 10° N
NOSS 7 (D) 3.7 20:01:03 10° SSW 20:03:54 73° SE 20:06:34 10° NE
Cosmos 2237 4.2 19:58:46 10° SSW 20:04:28 74° ESE 20:10:13 10° NNE
Cosmos 1328 4.2 20:03:01 10° SSE 20:06:48 46° E 20:10:37 10° NNE
SAR-Lupe-2 4.4 20:06:49 10° NNE 20:10:06 33° E 20:13:22 10° SSE
Cosmos 1455 2.3 20:08:20 10° NNW 20:12:11 78° W 20:16:02 10° S
Cosmos 1825 Rocket 3.7 20:11:45 10° S 20:16:07 61° E 20:20:32 10° NNE
ATLAS CENTAUR R/B 2.4 20:15:34 10° NNW 20:18:56 31° NE 20:22:14 10° ESE
Cosmos 1703 3.2 20:16:51 10° S 20:20:42 76° E 20:24:36 10° NNE
COSMOS 2428 3.5 20:16:47 10° SSE 20:21:45 32° ESE 20:26:44 10° NE
Cosmos 1844 3.8 20:18:28 10° NNW 20:24:17 86° ENE 20:29:32 13° SSE
Cosmos 2322 3.8 20:19:57 10° S 20:25:32 57° ESE 20:31:08 10° NE
CZ-4B DEB 4.4 20:28:15 14° SSE 20:31:00 68° ENE 20:34:21 10° N
Cosmos 783 Rocket 4.5 20:26:26 10° SSW 20:31:42 87° ESE 20:36:57 10° NNE
Cosmos 1709 Rocket 4.0 20:25:59 10° S 20:32:14 74° E 20:38:36 10° NNE
NOSS 3-3 (A) 4.2 20:28:37 10° S 20:34:03 43° ESE 20:40:07 10° NE
NOSS 3-3 (C) 4.3 20:28:44 10° S 20:34:10 42° ESE 20:40:14 10° NE
Terra 2.4 20:31:40 14° SE 20:35:28 45° ENE 20:40:00 10° N
Cosmos 2237 Rocket 3.8 20:33:12 13° SE 20:35:42 17° E 20:39:14 10° ENE
Atlas Centaur 2 3.9 20:31:58 10° SW 20:35:57 18° S 20:38:47 14° SSE
CARTOSAT-1 3.6 20:32:57 14° SSE 20:36:34 68° ENE 20:40:53 10° N
Cosmos 2333 4.2 20:31:44 10° SSW 20:37:19 67° ESE 20:42:58 10° NNE
Cosmos 2219 Rocket 2.4 20:32:25 10° S 20:37:44 47° ESE 20:43:05 10° NE
Cosmos 2360 Rocket 2.6 20:34:03 10° SW 20:39:40 67° WNW 20:45:20 10° NNE
IGS 5A 4.0 20:35:43 10° S 20:39:48 57° W 20:43:55 10° NNW
Cosmos 1538 Rocket 4.4 20:35:29 10° S 20:40:35 46° ESE 20:45:41 10° NNE
Cosmos 2333 Rocket 2.3 20:41:55 10° S 20:47:29 61° ESE 20:53:08 10° NNE
Cosmos 1315 Rocket 3.0 20:47:26 10° N 20:51:30 62° ENE 20:54:13 20° SSE
ATLAS 2AS CENTAUR R/B 3.8 20:44:25 10° NW 20:51:43 42° NE 20:58:25 10° ESE
Resurs 01 Rocket 3.9 20:48:34 10° SW 20:51:52 20° W 20:55:11 10° NW
Cosmos-2242 3.9 20:50:45 10° NNW 20:54:55 47° W 20:59:06 10° SSW
Cosmos 1818 4.3 20:49:46 10° SW 20:55:08 59° NW 21:00:32 10° NNE
Cosmos 773 Rocket 4.1 20:52:14 10° SSW 20:57:32 86° WNW 21:02:52 10° NNE
Cosmos 2221 3.1 20:55:45 10° N 20:59:58 44° ENE 21:02:29 21° SE
ERS-1 Rocket 3.2 20:56:51 15° S 21:01:02 71° WSW 21:06:06 10° NNW
GEOS 3 Rocket 4.0 20:57:47 10° NE 21:03:11 72° NW 21:08:32 10° SW
USA 215 3.2 20:59:54 10° NE 21:06:28 71° SE 21:12:59 10° SW
Cosmos 1892 3.8 21:07:02 23° SE 21:08:19 28° E 21:11:35 10° NNE
Cosmos 2278 Rocket 2.6 21:03:39 10° NNW 21:09:15 56° ENE 21:13:09 20° SE
ATLAS 5 CENTAUR R/B 2.8 21:07:51 10° WSW 21:11:54 45° NW 21:16:30 10° NNE
Meteor 1-11 4.5 21:06:25 10° SSW 21:12:01 71° WNW 21:17:44 10° N
Cosmos 1844 Rocket 3.9 21:08:52 10° NW 21:13:48 33° WSW 21:18:16 12° SSW
Gblst 52 Del rocket 4.3 21:09:36 10° WNW 21:15:20 86° SSW 21:20:33 16° ESE
SPOT 5 3.4 21:13:56 17° S 21:17:47 57° W 21:22:32 10° NNW
SL-16 R/B 4.0 21:18:56 13° ESE 21:20:06 14° E 21:22:56 10° ENE
Lacrosse 5 rocket 4.0 21:17:53 10° NW 21:21:03 20° N 21:24:06 10° NE
USA 81 4.5 21:19:52 11° SSW 21:24:53 61° W 21:30:08 10° N
Nadezhda 3 Rocket 4.4 21:19:03 10° N 21:25:17 53° ENE 21:29:11 23° SE
Cosmos 2058 3.3 21:25:00 29° SSE 21:26:43 47° E 21:30:43 10° NNE
Cosmos 2154 Rocket 4.3 21:23:04 22° SSE 21:26:46 49° E 21:32:43 10° NNE
BREEZE M DEB (TANK) 3.5 21:26:24 10° W 21:27:39 19° SW 21:27:39 19° SW
Cosmos 1408 3.6 21:29:06 27° ESE 21:29:47 29° E 21:32:54 10° NNE
Meteor 2-17 Rocket 4.4 21:27:25 21° S 21:31:30 68° E 21:37:31 10° NNE
In-Cosmos 22 Rocket 4.1 21:29:55 24° S 21:33:05 64° E 21:38:21 10° NNE
Cosmos 2074 Rocket 4.0 21:29:16 18° S 21:34:02 86° E 21:40:17 10° N
TSX-5 3.7 21:32:24 10° NNW 21:35:54 77° ENE 21:37:36 33° SE
Cosmos 1076 Rocket 3.7 21:36:08 31° SSE 21:37:55 56° E 21:42:07 10° NNE
Cosmos 1680 Rocket 3.8 21:35:42 26° SSE 21:38:22 50° ESE 21:43:30 10° NNE
USA 267 3.2 21:34:05 18° SE 21:39:13 90° W 21:45:49 10° NW
Cosmos 2084 4.1 21:42:11 10° NW 21:46:27 44° WSW 21:48:05 30° S
Cosmos 1842 Rocket 4.1 21:42:31 10° NNW 21:46:45 50° W 21:49:02 24° SSW
JB-3 4.4 21:44:08 10° N 21:47:59 71° WNW 21:49:57 27° SSW
Cosmos 2151 4.0 21:47:18 28° ESE 21:48:26 32° E 21:52:15 10° NNE
MTI 4.4 21:48:55 10° N 21:51:55 48° WNW 21:53:10 28° SW
Cosmos 923 Rocket 4.0 21:52:20 21° SSW 21:55:51 88° ESE 22:01:12 10° NNE
Cosmos 2327 Rocket 4.4 21:52:14 24° S 21:56:13 87° E 22:02:23 10° N
ATLAS CENTAUR R/B 2.3 21:54:35 10° WNW 21:57:44 27° WSW 21:58:26 25° SW
Cosmos 1825 2.7 21:58:08 38° SE 21:58:51 43° E 22:02:28 10° NNE
ALOS 2 3.6 21:58:03 25° ESE 21:59:54 36° ENE 22:03:56 10° N
Cosmos 1980 3.6 21:56:55 21° SSW 22:00:43 80° ESE 22:06:24 10° NNE
Cosmos 2369 Rocket 4.3 21:57:13 10° N 22:01:13 20° NE 22:05:13 10° E
Cosmos 1151 Rocket 4.4 21:57:52 10° NNE 22:01:37 28° ENE 22:03:13 22° ESE
Cosmos 44 4.0 22:05:15 28° ESE 22:05:15 28° ESE 22:08:58 10° ENE
COSMOS 2428 3.7 22:00:26 10° SW 22:05:51 45° NW 22:11:20 10° NNE
Cosmos 1295 Rocket 4.4 22:06:30 28° S 22:09:56 81° E 22:16:03 10° N
GP-B 4.0 22:06:00 10° NNE 22:10:07 36° E 22:11:23 30° ESE
NOSS 0 Rocket 4.1 22:07:32 13° SW 22:13:10 75° WNW 22:19:22 10° NNE
Terra 3.6 22:10:33 14° SW 22:13:24 24° W 22:17:14 10° NW
Cosmos 1624 Rocket 4.0 22:09:25 10° NNW 22:14:42 79° ENE 22:16:57 35° SSE
NOSS 3-4 (A) 3.8 22:08:13 10° NW 22:15:12 83° SW 22:19:47 27° SSE
NOSS 3-4 (C) 3.8 22:08:20 10° NW 22:15:20 83° SW 22:19:55 27° SSE
Cosmos 2237 Rocket 2.2 22:14:58 20° SSW 22:19:01 81° WNW 22:24:46 10° NNE
SL-4 R/B 3.5 22:19:54 12° NE 22:19:54 12° NE 22:20:21 10° NE
Genesis I 3.0 22:18:36 44° SSW 22:19:46 81° SE 22:23:41 10° NE
Cosmos 2344 3.5 22:16:02 18° SSW 22:21:44 69° ESE 22:29:41 10° NE
Cosmos 2219 Rocket 3.8 22:16:52 10° WSW 22:21:52 32° NW 22:26:54 10° NNE
DELTA 2 R/B (1) 4.0 22:25:09 10° WSW 22:36:22 - ESE 22:30:03 36° S
Thor Agena Rocket 3.7 22:25:31 10° N 22:30:37 70° WNW 22:33:18 28° SSW
Cosmos 2333 Rocket 4.1 22:27:20 10° WSW 22:32:10 28° NW 22:37:04 10° N
BREEZE-M DEB (TANK) 1.7 22:38:28 10° WNW 22:41:22 55° W 22:41:22 55° W
Cosmos 1515 Rocket 4.4 22:37:46 10° N 22:41:54 40° ENE 22:43:15 31° ESE
Cosmos 1371 Rocket 4.3 22:37:14 10° NNW 22:42:23 56° WSW 22:44:15 36° SSW
ATLAS 2AS CENTAUR R/B 2.9 22:35:40 10° NW 22:43:06 63° WSW 22:46:25 32° S
EO 1 Del DPAF 4.0 22:40:05 10° N 22:43:42 46° WNW 22:44:59 32° WSW
Cosmos 1766 Rocket 3.5 22:44:24 49° S 22:45:34 83° E 22:50:00 10° N
Gbstr 26 Del rocket 4.0 22:49:28 26° ESE 22:49:28 26° ESE 22:51:51 10° ENE
Okean 3 Rocket 3.6 22:47:02 44° SSW 22:48:24 80° W 22:52:52 10° N
Cosmos 1328 Rocket 3.5 22:45:01 10° N 22:49:20 79° ENE 22:50:25 50° SSE
USA 215 4.1 22:43:02 10° NE 22:49:21 52° NNW 22:55:39 10° W
Aureole 2 Rocket 2.5 22:46:38 10° NNW 22:48:59 53° WNW 22:48:59 53° WNW
Cosmos 1606 2.7 22:47:47 10° NNW 22:51:41 75° W 22:52:19 58° SSW
Cosmos 2278 Rocket 3.6 22:48:22 10° NW 22:52:57 26° WSW 22:54:59 21° SW
Cosmos 2218 Rocket 4.0 22:50:54 34° S 22:53:50 78° E 23:00:10 10° NNE
Cosmos 2297 3.7 22:49:05 10° NNW 22:54:51 81° WSW 22:57:11 38° SSE
Cosmos 2228 Rocket 4.3 22:53:20 10° N 22:57:32 34° ENE 22:59:19 25° ESE
Cosmos 1420 Rocket 3.9 22:53:21 10° NNW 22:58:39 85° WSW 23:00:36 40° SSE
Cosmos 2366 rocket 4.0 22:56:35 35° S 22:59:31 81° E 23:05:54 10° N
Lacrosse 5 rocket 3.0 22:57:34 10° NW 23:01:11 31° NNE 23:04:38 10° E
Cosmos 1633 3.3 23:01:11 39° ESE 23:01:22 39° E 23:04:47 10° NNE
Cosmos 1943 Rocket 2.6 22:55:53 10° NNW 23:01:32 60° ENE 23:04:40 26° SE
SL-16 R/B 2.1 23:00:46 35° SSW 23:03:20 86° ESE 23:09:03 10° NNE
Landsat 4 4.4 23:00:06 10° NNE 23:03:41 40° E 23:03:59 39° ESE
Cosmos 2056 Rocket 4.3 23:01:11 10° NW 23:06:15 41° WSW 23:07:58 32° SW
Cosmos 1959 Rocket 4.4 23:06:20 35° SSW 23:09:10 85° W 23:15:24 10° N
YAOGAN 11 4.1 23:09:09 45° SE 23:10:24 73° ENE 23:14:50 10° N
Cosmos 1743 Rocket 3.9 23:12:36 42° SE 23:13:31 50° E 23:17:44 10° NNE
Cosmos 332 Rocket 3.7 23:15:12 10° NNW 23:20:01 84° WSW 23:21:28 46° SSE
Cosmos 1048 Rocket 4.3 23:19:32 39° SSE 23:21:09 54° ESE 23:26:17 10° NNE
USA 267 4.1 23:21:25 28° SSW 23:22:45 30° SW 23:28:22 10° WNW
Meteor 2-3 Rocket 3.7 23:21:02 37° SSW 23:23:22 81° WNW 23:29:07 10° N
Helios 1A 3.1 23:24:53 51° SSW 23:25:39 63° WSW 23:29:48 10° NNW
Cosmos 405 2.8 23:25:20 10° N 23:28:53 85° E 23:29:08 76° SSE
Cosmos 1452 Rocket 3.6 23:28:12 10° NNW 23:33:26 64° WSW 23:35:06 42° S
CZ-4C R/B 3.3 23:27:41 10° NW 23:34:41 64° NE 23:42:49 10° SE
Cosmos 1340 3.4 23:34:23 37° WSW 23:35:08 42° WNW 23:38:44 10° N
Meteor 2-6 Rocket 4.4 23:29:57 10° N 23:35:25 64° ENE 23:37:53 32° SSE
COSMOS 2455 2.8 23:29:28 10° NW 23:35:32 79° WSW 23:38:24 33° SSE
PSLV R/B 3.7 23:31:27 10° NNE 23:35:39 60° ESE 23:36:34 47° SSE
ALOS 2 4.0 23:35:27 23° WSW 23:36:19 25° W 23:39:57 10° NW
Cosmos 1408 Rocket 4.1 23:35:56 36° SW 23:37:14 48° WNW 23:41:32 10° N
Cosmos 1110 Rocket 4.4 23:32:09 10° NNW 23:37:24 61° ENE 23:40:15 27° SE
Cosmos 1933 4.5 23:34:04 10° NNW 23:37:37 30° W 23:38:13 29° WSW
SL-16 R/B 4.1 23:32:38 10° ESE 23:37:52 29° ENE 23:43:08 10° N
Cosmos 1603 4.1 23:36:25 35° SSE 23:38:20 49° ESE 23:43:49 10° NE
Cosmos 1151 Rocket 4.2 23:35:22 10° NNW 23:39:09 30° W 23:40:03 27° WSW
Cosmos 1727 Rocket 4.2 23:39:13 10° NNW 23:45:21 59° W 23:48:04 33° SSW
APEX 4.3 23:43:01 10° NW 23:44:22 22° WNW 23:44:22 22° WNW
Resurs 1-4 Rocket 4.0 23:42:13 10° NE 23:45:58 19° E 23:48:45 13° SE
Cosmos 1500 Rocket 3.5 23:44:49 49° SSW 23:45:59 79° W 23:50:23 10° N
Cosmos 2369 Rocket 2.1 23:40:26 10° NNW 23:46:04 88° ENE 23:48:49 32° SSE
Cosmos 44 4.1 23:43:38 20° WSW 23:46:15 41° NW 23:50:30 10° NNE
ISS -1.5 23:51:01 16° E 23:51:01 16° E 23:52:08 10° E
Cosmos 371 Rocket 4.2 23:45:11 10° NW 23:49:31 33° WSW 23:50:25 31° SW
SeaSat 1 3.8 23:45:52 10° NE 23:49:57 25° ESE 23:51:20 22° SE
Cosmos 1000 Rocket 4.5 23:45:56 10° N 23:52:18 90° W 23:55:26 33° S
Helios 1B rocket 2.4 23:50:17 10° NNE 23:54:26 80° ESE 23:55:23 52° S
CREW DRAGON DEMO-1 DEB 4.2 23:54:48 16° WNW 23:56:58 40° N 23:59:54 10° ENE
